クリステンセン彗星

298P/Christensen (2013)

English version
Home page
Updated on April 29, 2014

---------------------------------------------------------------------

・ プロフィール

符号 298P/2014 C4
検出日 2014年2月9日
検出光度 21.4等
検出者 J. V. Scotti (Spacewatch)

・ 軌道要素

Epoch 2013 Nov. 4.0 TT = JDT 2456600.5
T 2013 Nov. 15.66390 TT                                 MPC
q   2.1945562            (2000.0)            P               Q
n   0.14503982     Peri.  100.57299     -0.88709643     -0.44847276
a   3.5876595      Node    52.86967     +0.35149120     -0.80971773
e   0.3883042      Incl.    7.87494     +0.29918868     -0.37845659
P   6.80
From 133 observations 2007 Feb. 9-2014 Mar. 23, mean residual 0".5.

・ 光度変化

        m1 = 15.2 + 5 logΔ + 10.0 log r

---------------------------------------------------------------------

軌道要素はM.P.E.C. 2014-F26に掲載されたものです。
光度グラフはComet for Windowsで作成したものです。

---------------------------------------------------------------------

Copyright(C) Seiichi Yoshida (comet@aerith.net). All rights reserved.